Wright-Patt AFB, OH

4:58 AM EDT on April 29, 2017 (GMT -0400)
Wright-Patterson Air Force Base

Weather History for KFFO - June, 2014

Change the Weather History Date:

Saturday, June 21, 2014

  Actual Average Record
Temperature  
Mean Temperature 74 °F -  
Max Temperature 79 °F 80 °F 93 °F (2012)
Min Temperature 68 °F 59 °F 50 °F (2003)
Cooling Degree Days 8    
Growing Degree Days 24 (Base 50)    
Moisture  
Dew Point 67 °F    
Average Humidity 82    
Maximum Humidity 100    
Minimum Humidity 63    
Precipitation  
Precipitation 0.00 in - - ()
Sea Level Pressure  
Sea Level Pressure 29.95 in    
Wind  
Wind Speed 6 mph (NW)    
Max Wind Speed 10 mph    
Max Gust Speed -    
Visibility 9 miles    
Events      
Averages and records for this station are not official NWS values.
T = Trace of Precipitation, MM = Missing Value Source: NWS Daily Summary

Daily Weather History Graph

Daily Weather History Graph

Search for Another Location

Airport or City:

Trip Planner

Search our weather history database for the weather conditions in past years. The results will help you decide how hot, cold, wet, or windy it might be!

Date:

Astronomy

Jun. 21, 2014 Rise Set
Actual Time 6:08 AM EDT 9:07 PM EDT
Civil Twilight 5:35 AM EDT 9:40 PM EDT
Nautical Twilight 4:53 AM EDT 10:22 PM EDT
Astronomical Twilight 4:05 AM EDT 11:10 PM EDT
Moon 2:19 AM EDT (6/21) 3:46 PM EDT (6/21)
Length of Visible Light 16h 05m
Length of Day
14h 59m
Waning Crescent, 30% of the Moon is Illuminated
Jun 21
Waning Crescent
Jun 27
New
Jul 5
First Quarter
Jul 12
Full
Jul 18
Last Quarter

Hourly Weather History & Observations

Time (EDT) Temp. Dew Point Humidity Pressure Visibility Wind Dir Wind Speed Gust Speed Precip Events Conditions
12:58 AM 70.9 °F 69.1 °F 94% 29.92 in 10.0 mi North - - N/A   Clear
1:58 AM 68.2 °F 67.8 °F 99% 29.92 in 10.0 mi West 4.6 mph - N/A   Clear
2:28 AM 69.8 °F 68.0 °F 94% 29.92 in 10.0 mi WSW 4.6 mph - N/A   Scattered Clouds
2:58 AM 69.1 °F 68.2 °F 97% 29.91 in 10.0 mi West 4.6 mph - N/A   Scattered Clouds
3:13 AM 69.8 °F 68.0 °F 94% 29.91 in 10.0 mi WNW 3.5 mph - N/A   Overcast
3:58 AM 70.0 °F 68.9 °F 96% 29.90 in 10.0 mi WNW 3.5 mph - N/A   Overcast
4:08 AM 69.8 °F 69.8 °F 100% 29.90 in 10.0 mi NW 3.5 mph - N/A   Overcast
4:22 AM 69.8 °F 69.8 °F 100% 29.90 in 2.0 mi NW 5.8 mph - N/A   Overcast
4:58 AM 69.8 °F 69.8 °F 100% 29.91 in 2.0 mi WNW 5.8 mph - N/A   Overcast
5:33 AM 69.8 °F 69.8 °F 100% 29.92 in 3.0 mi NW 5.8 mph - N/A   Overcast
5:58 AM 70.5 °F 69.1 °F 95% 29.93 in 3.0 mi NW 6.9 mph - N/A   Overcast
6:38 AM 69.8 °F 68.0 °F 94% 29.95 in 3.0 mi WNW 6.9 mph - N/A   Overcast
6:58 AM 70.5 °F 68.4 °F 93% 29.96 in 4.0 mi WNW 6.9 mph - N/A   Mostly Cloudy
7:58 AM 69.8 °F 66.2 °F 88% 29.96 in 10.0 mi NW 9.2 mph - N/A   Overcast
8:58 AM 70.3 °F 66.4 °F 87% 29.98 in 10.0 mi NNW 8.1 mph - N/A   Overcast
9:28 AM 69.8 °F 66.2 °F 88% 29.98 in 10.0 mi NNW 8.1 mph - N/A   Overcast
9:38 AM 69.8 °F 66.2 °F 88% 29.98 in 10.0 mi North 9.2 mph - N/A   Overcast
9:48 AM 69.8 °F 64.4 °F 83% 29.98 in 10.0 mi North 10.4 mph - N/A   Overcast
9:58 AM 69.8 °F 64.4 °F 83% 29.98 in 10.0 mi NNW 9.2 mph - N/A   Overcast
10:08 AM 71.6 °F 64.4 °F 78% 29.98 in 10.0 mi NNW 8.1 mph - N/A   Overcast
10:58 AM 72.3 °F 64.9 °F 78% 29.99 in 10.0 mi North 9.2 mph - N/A   Mostly Cloudy
11:28 AM 73.4 °F 64.4 °F 73% 29.99 in 10.0 mi NNW 8.1 mph - N/A   Scattered Clouds
11:48 AM 73.4 °F 64.4 °F 73% 29.99 in 10.0 mi NNW 6.9 mph - N/A   Mostly Cloudy
11:58 AM 73.4 °F 64.4 °F 73% 29.98 in 10.0 mi NNW 6.9 mph - N/A   Scattered Clouds
12:28 PM 75.2 °F 66.2 °F 73% 29.98 in 10.0 mi NW 8.1 mph - N/A   Mostly Cloudy
12:38 PM 75.2 °F 66.2 °F 73% 29.98 in 10.0 mi North 6.9 mph - N/A   Scattered Clouds
12:58 PM 75.6 °F 65.5 °F 71% 29.96 in 10.0 mi NNW 6.9 mph - N/A   Mostly Cloudy
1:08 PM 77.0 °F 66.2 °F 69% 29.97 in 10.0 mi NW 8.1 mph - N/A   Partly Cloudy
1:58 PM 77.0 °F 66.2 °F 69% 29.98 in 10.0 mi NNW 9.2 mph - N/A   Scattered Clouds
2:58 PM 77.7 °F 66.4 °F 68% 29.96 in 10.0 mi North 8.1 mph - N/A   Partly Cloudy
3:58 PM 79.0 °F 66.6 °F 66% 29.94 in 10.0 mi NNW 6.9 mph - N/A   Partly Cloudy
4:58 PM 79.9 °F 66.2 °F 63% 29.94 in 10.0 mi NNW 6.9 mph - N/A   Partly Cloudy
5:58 PM 79.2 °F 65.5 °F 63% 29.91 in 10.0 mi North 5.8 mph - N/A   Clear
6:58 PM 79.2 °F 66.2 °F 64% 29.91 in 10.0 mi NNW 6.9 mph - N/A   Clear
7:58 PM 77.7 °F 65.7 °F 66% 29.91 in 10.0 mi North 5.8 mph - N/A   Clear
8:58 PM 73.8 °F 66.0 °F 77% 29.91 in 10.0 mi NNE 4.6 mph - N/A   Clear
9:58 PM 72.3 °F 66.0 °F 80% 29.94 in 8.0 mi North 2.3 mph - N/A   Clear
10:08 PM 71.6 °F 66.2 °F 83% 29.94 in 10.0 mi NNW 1.2 mph - N/A   Clear
10:58 PM 70.5 °F 64.4 °F 81% 29.95 in 10.0 mi NW 3.5 mph - N/A   Clear
11:58 PM 69.4 °F 64.9 °F 86% 29.94 in 10.0 mi Calm Calm - N/A   Partly Cloudy